Time,TemperatureF,DewpointF,PressureIn,WindDirection,WindDirectionDegrees,WindSpeedMPH,WindSpeedGustMPH,Humidity,HourlyPrecipIn,Conditions,Clouds,dailyrainin,SoftwareType,DateUTC
2013-03-03 00:00:00,30.4,21.8,29.78,WNW,291,1.0,4.0,70,0.00,,BKN100,0.00,VWS V14.01,2013-03-03 05:00:00,
2013-03-03 00:05:00,30.5,21.6,29.78,WNW,292,2.0,8.0,69,0.00,,OVC047,0.00,VWS V14.01,2013-03-03 05:05:00,
2013-03-03 00:10:00,30.6,21.6,29.78,WNW,288,3.0,8.0,69,0.00,,OVC047,0.00,VWS V14.01,2013-03-03 05:10:00,
2013-03-03 00:16:00,30.7,21.8,29.78,West,259,5.0,8.0,69,0.00,,OVC047,0.00,VWS V14.01,2013-03-03 05:16:00,
2013-03-03 00:20:00,30.8,21.9,29.78,NNW,327,9.0,10.0,69,0.00,,OVC047,0.00,VWS V14.01,2013-03-03 05:20:00,
2013-03-03 00:26:00,30.8,21.9,29.78,NW,311,2.0,10.0,69,0.00,,OVC047,0.00,VWS V14.01,2013-03-03 05:26:00,
2013-03-03 00:31:00,30.8,21.9,29.78,NW,321,2.0,4.0,69,0.00,,OVC047,0.00,VWS V14.01,2013-03-03 05:31:00,
2013-03-03 00:36:00,30.8,21.9,29.78,WNW,299,3.0,9.0,69,0.00,,OVC047,0.00,VWS V14.01,2013-03-03 05:36:00,
2013-03-03 00:41:00,30.8,21.5,29.78,NW,315,4.0,9.0,68,0.00,,OVC047,0.00,VWS V14.01,2013-03-03 05:41:00,
2013-03-03 00:46:00,30.8,21.9,29.78,NW,324,4.0,9.0,69,0.00,,OVC047,0.00,VWS V14.01,2013-03-03 05:46:00,
2013-03-03 00:51:00,30.8,21.5,29.78,West,275,7.0,9.0,68,0.00,,OVC047,0.00,VWS V14.01,2013-03-03 05:51:00,
2013-03-03 00:56:00,30.9,21.6,29.78,NNW,343,2.0,9.0,68,0.00,,OVC047,0.00,VWS V14.01,2013-03-03 05:56:00,
2013-03-03 01:01:00,30.9,21.6,29.78,WNW,291,5.0,5.0,68,0.00,,OVC047,0.00,VWS V14.01,2013-03-03 06:01:00,
2013-03-03 01:06:00,30.8,21.5,29.78,NNW,330,6.0,10.0,68,0.00,,OVC049,0.00,VWS V14.01,2013-03-03 06:06:00,
2013-03-03 01:11:00,30.8,21.5,29.78,WNW,299,3.0,11.0,68,0.00,,OVC049,0.00,VWS V14.01,2013-03-03 06:11:00,
2013-03-03 01:16:00,30.9,21.6,29.78,NW,325,4.0,11.0,68,0.00,,OVC049,0.00,VWS V14.01,2013-03-03 06:16:00,
2013-03-03 01:21:00,30.9,21.2,29.78,WNW,288,4.0,12.0,67,0.00,,OVC049,0.00,VWS V14.01,2013-03-03 06:21:00,
2013-03-03 01:26:00,30.9,21.2,29.78,NNW,342,4.0,12.0,67,0.00,,OVC049,0.00,VWS V14.01,2013-03-03 06:26:00,
2013-03-03 01:31:00,30.9,21.2,29.78,WNW,303,5.0,9.0,67,0.00,,OVC049,0.00,VWS V14.01,2013-03-03 06:31:00,
2013-03-03 01:36:00,30.9,21.2,29.78,NNW,330,2.0,10.0,67,0.00,,OVC049,0.00,VWS V14.01,2013-03-03 06:36:00,
2013-03-03 01:41:00,30.9,20.9,29.78,NW,320,6.0,10.0,66,0.00,,OVC049,0.00,VWS V14.01,2013-03-03 06:41:00,
2013-03-03 01:46:00,30.9,20.9,29.77,West,273,5.0,16.0,66,0.00,,OVC049,0.00,VWS V14.01,2013-03-03 06:46:00,
2013-03-03 01:51:00,30.8,20.8,29.77,WNW,297,6.0,16.0,66,0.00,,OVC049,0.00,VWS V14.01,2013-03-03 06:51:00,
2013-03-03 01:56:00,30.7,20.7,29.77,West,280,3.0,16.0,66,0.00,,OVC049,0.00,VWS V14.01,2013-03-03 06:56:00,
2013-03-03 02:01:00,30.7,20.7,29.77,NNW,344,6.0,7.0,66,0.00,,OVC049,0.00,VWS V14.01,2013-03-03 07:01:00,
2013-03-03 02:06:00,30.7,20.7,29.77,NW,306,4.0,11.0,66,0.00,,OVC049,0.00,VWS V14.01,2013-03-03 07:06:00,
2013-03-03 02:11:00,30.6,20.6,29.77,NW,309,5.0,11.0,66,0.00,,OVC049,0.00,VWS V14.01,2013-03-03 07:11:00,
2013-03-03 02:16:00,30.6,20.6,29.77,NNW,327,8.0,11.0,66,0.00,,OVC049,0.00,VWS V14.01,2013-03-03 07:16:00,
2013-03-03 02:21:00,30.5,20.5,29.77,NW,309,3.0,11.0,66,0.00,,OVC049,0.00,VWS V14.01,2013-03-03 07:21:00,
2013-03-03 02:26:00,30.5,20.5,29.77,WNW,291,4.0,13.0,66,0.00,,OVC049,0.00,VWS V14.01,2013-03-03 07:26:00,
2013-03-03 02:31:00,30.5,20.5,29.77,NW,305,6.0,8.0,66,0.00,,OVC049,0.00,VWS V14.01,2013-03-03 07:31:00,
2013-03-03 02:36:00,30.4,20.4,29.76,NW,319,8.0,11.0,66,0.00,,OVC049,0.00,VWS V14.01,2013-03-03 07:36:00,
2013-03-03 02:41:00,30.4,20.4,29.76,NW,317,4.0,11.0,66,0.00,,OVC049,0.00,VWS V14.01,2013-03-03 07:41:00,
2013-03-03 02:46:00,30.4,20.4,29.76,NNW,327,4.0,11.0,66,0.00,,OVC049,0.00,VWS V14.01,2013-03-03 07:46:00,
2013-03-03 02:51:00,30.3,20.3,29.76,NW,311,2.0,11.0,66,0.00,,OVC049,0.00,VWS V14.01,2013-03-03 07:51:00,
2013-03-03 02:56:00,30.3,20.3,29.76,WNW,303,3.0,12.0,66,0.00,,OVC049,0.00,VWS V14.01,2013-03-03 07:56:00,
2013-03-03 03:01:00,30.3,20.3,29.76,NW,311,3.0,6.0,66,0.00,,OVC090,0.00,VWS V14.01,2013-03-03 08:01:00,
2013-03-03 03:06:00,30.3,20.3,29.76,NW,323,3.0,8.0,66,0.00,,OVC090,0.00,VWS V14.01,2013-03-03 08:06:00,
2013-03-03 03:11:00,30.3,20.3,29.76,NW,315,4.0,8.0,66,0.00,,OVC090,0.00,VWS V14.01,2013-03-03 08:11:00,
2013-03-03 03:16:00,30.2,20.6,29.76,WNW,296,3.0,9.0,67,0.00,,OVC090,0.00,VWS V14.01,2013-03-03 08:16:00,
2013-03-03 03:21:00,30.2,20.6,29.76,NNW,344,4.0,9.0,67,0.00,,OVC090,0.00,VWS V14.01,2013-03-03 08:21:00,
2013-03-03 03:26:00,30.2,20.2,29.76,NW,309,4.0,13.0,66,0.00,,OVC090,0.00,VWS V14.01,2013-03-03 08:26:00,
2013-03-03 03:31:00,30.2,20.6,29.76,WNW,296,5.0,5.0,67,0.00,,OVC090,0.00,VWS V14.01,2013-03-03 08:31:00,
2013-03-03 03:36:00,30.2,20.6,29.76,WNW,302,3.0,13.0,67,0.00,,OVC090,0.00,VWS V14.01,2013-03-03 08:36:00,
2013-03-03 03:41:00,30.1,20.5,29.76,NW,313,5.0,13.0,67,0.00,,OVC090,0.00,VWS V14.01,2013-03-03 08:41:00,
2013-03-03 03:46:00,30.1,20.5,29.76,NW,311,6.0,13.0,67,0.00,,OVC090,0.00,VWS V14.01,2013-03-03 08:46:00,
2013-03-03 03:51:00,30.1,20.5,29.76,WNW,291,2.0,13.0,67,0.00,,OVC090,0.00,VWS V14.01,2013-03-03 08:51:00,
2013-03-03 03:56:00,30.0,20.4,29.76,NW,317,3.0,13.0,67,0.00,,OVC090,0.00,VWS V14.01,2013-03-03 08:56:00,
2013-03-03 04:01:00,29.9,20.3,29.76,NNW,340,3.0,4.0,67,0.00,,OVC090,0.00,VWS V14.01,2013-03-03 09:01:00,
2013-03-03 04:06:00,29.9,20.3,29.76,WNW,285,3.0,7.0,67,0.00,,OVC090,0.00,VWS V14.01,2013-03-03 09:06:00,
2013-03-03 04:11:00,29.8,20.2,29.76,WNW,297,3.0,9.0,67,0.00,,OVC090,0.00,VWS V14.01,2013-03-03 09:11:00,
2013-03-03 04:16:00,29.8,19.8,29.76,North,349,8.0,15.0,66,0.00,,OVC090,0.00,VWS V14.01,2013-03-03 09:16:00,
2013-03-03 04:21:00,29.8,19.8,29.76,WNW,300,4.0,15.0,66,0.00,,OVC090,0.00,VWS V14.01,2013-03-03 09:21:00,
2013-03-03 04:26:00,29.8,19.8,29.76,NW,320,7.0,15.0,66,0.00,,OVC090,0.00,VWS V14.01,2013-03-03 09:26:00,
2013-03-03 04:31:00,29.8,19.8,29.77,NNW,335,4.0,8.0,66,0.00,,OVC090,0.00,VWS V14.01,2013-03-03 09:31:00,
2013-03-03 04:36:00,29.8,19.5,29.77,WNW,284,4.0,11.0,65,0.00,,OVC090,0.00,VWS V14.01,2013-03-03 09:36:00,
2013-03-03 04:41:00,29.7,19.4,29.77,NW,323,5.0,11.0,65,0.00,,OVC090,0.00,VWS V14.01,2013-03-03 09:41:00,
2013-03-03 04:46:00,29.6,19.3,29.77,WNW,285,3.0,11.0,65,0.00,,OVC090,0.00,VWS V14.01,2013-03-03 09:46:00,
2013-03-03 04:51:00,29.5,19.2,29.77,NNW,335,6.0,12.0,65,0.00,,OVC090,0.00,VWS V14.01,2013-03-03 09:51:00,
2013-03-03 04:56:00,29.4,19.1,29.77,NW,319,7.0,12.0,65,0.00,,OVC090,0.00,VWS V14.01,2013-03-03 09:56:00,
2013-03-03 05:01:00,29.3,19.0,29.77,West,273,7.0,8.0,65,0.00,,OVC095,0.00,VWS V14.01,2013-03-03 10:01:00,
2013-03-03 05:06:00,29.2,19.3,29.77,NW,322,2.0,8.0,66,0.00,,OVC095,0.00,VWS V14.01,2013-03-03 10:06:00,
2013-03-03 05:11:00,29.1,19.2,29.77,West,268,5.0,8.0,66,0.00,,OVC095,0.00,VWS V14.01,2013-03-03 10:11:00,
2013-03-03 05:16:00,29.1,19.2,29.77,NW,321,4.0,8.0,66,0.00,,OVC095,0.00,VWS V14.01,2013-03-03 10:16:00,
2013-03-03 05:21:00,29.0,19.1,29.77,NW,325,9.0,9.0,66,0.00,,OVC095,0.00,VWS V14.01,2013-03-03 10:21:00,
2013-03-03 05:26:00,29.0,19.1,29.77,WNW,295,3.0,10.0,66,0.00,,OVC095,0.00,VWS V14.01,2013-03-03 10:26:00,
2013-03-03 05:31:00,29.0,19.1,29.77,NW,318,2.0,9.0,66,0.00,,OVC095,0.00,VWS V14.01,2013-03-03 10:31:00,
2013-03-03 05:36:00,28.9,18.6,29.77,WNW,284,5.0,9.0,65,0.00,,OVC095,0.00,VWS V14.01,2013-03-03 10:36:00,
2013-03-03 05:41:00,28.8,18.5,29.77,NNW,329,2.0,10.0,65,0.00,,OVC095,0.00,VWS V14.01,2013-03-03 10:41:00,
2013-03-03 05:46:00,28.8,18.5,29.77,NW,304,3.0,10.0,65,0.00,,OVC095,0.00,VWS V14.01,2013-03-03 10:46:00,
2013-03-03 05:51:00,28.8,18.5,29.77,NW,308,2.0,10.0,65,0.00,,OVC095,0.00,VWS V14.01,2013-03-03 10:51:00,
2013-03-03 05:56:00,28.7,18.4,29.78,NW,321,4.0,10.0,65,0.00,,OVC095,0.00,VWS V14.01,2013-03-03 10:56:00,
2013-03-03 06:01:00,28.7,18.4,29.78,NW,309,2.0,10.0,65,0.00,,OVC095,0.00,VWS V14.01,2013-03-03 11:01:00,
2013-03-03 06:06:00,28.6,18.3,29.77,WNW,286,4.0,10.0,65,0.00,,OVC095,0.00,VWS V14.01,2013-03-03 11:06:00,
2013-03-03 06:11:00,28.6,18.3,29.77,WNW,284,8.0,13.0,65,0.00,,OVC095,0.00,VWS V14.01,2013-03-03 11:11:00,
2013-03-03 06:17:00,28.5,18.2,29.77,WNW,288,4.0,13.0,65,0.00,,OVC095,0.00,VWS V14.01,2013-03-03 11:17:00,
2013-03-03 06:22:00,28.4,18.1,29.77,WNW,288,3.0,13.0,65,0.00,,OVC095,0.00,VWS V14.01,2013-03-03 11:22:00,
2013-03-03 06:27:00,28.4,18.5,29.78,WNW,294,5.0,13.0,66,0.00,,OVC095,0.00,VWS V14.01,2013-03-03 11:27:00,
2013-03-03 06:32:00,28.3,18.4,29.78,WSW,249,5.0,12.0,66,0.00,,OVC095,0.00,VWS V14.01,2013-03-03 11:32:00,
2013-03-03 06:37:00,28.3,18.4,29.78,NNW,331,6.0,12.0,66,0.00,,OVC095,0.00,VWS V14.01,2013-03-03 11:37:00,
2013-03-03 06:42:00,28.3,18.4,29.78,NW,319,2.0,12.0,66,0.00,,OVC095,0.00,VWS V14.01,2013-03-03 11:42:00,
2013-03-03 06:47:00,28.3,18.4,29.78,WNW,292,6.0,12.0,66,0.00,,OVC095,0.00,VWS V14.01,2013-03-03 11:47:00,
2013-03-03 06:52:00,28.4,18.5,29.78,NW,313,2.0,12.0,66,0.00,,OVC095,0.00,VWS V14.01,2013-03-03 11:52:00,
2013-03-03 06:57:00,28.5,18.6,29.78,West,279,4.0,12.0,66,0.00,,OVC095,0.00,VWS V14.01,2013-03-03 11:57:00,
2013-03-03 07:02:00,28.6,18.7,29.78,NNW,344,12.0,12.0,66,0.00,,OVC095,0.00,VWS V14.01,2013-03-03 12:02:00,
2013-03-03 07:07:00,28.7,18.8,29.78,WNW,296,2.0,12.0,66,0.00,,OVC095,0.00,VWS V14.01,2013-03-03 12:07:00,
2013-03-03 07:12:00,28.8,18.9,29.78,WNW,292,6.0,12.0,66,0.00,,OVC095,0.00,VWS V14.01,2013-03-03 12:12:00,
2013-03-03 07:17:00,28.8,18.9,29.78,NNW,339,4.0,12.0,66,0.00,,OVC095,0.00,VWS V14.01,2013-03-03 12:17:00,
2013-03-03 07:22:00,29.0,19.1,29.78,WNW,296,6.0,12.0,66,0.00,,OVC095,0.00,VWS V14.01,2013-03-03 12:22:00,
2013-03-03 07:27:00,29.2,18.9,29.78,NW,325,6.0,12.0,65,0.00,,OVC095,0.00,VWS V14.01,2013-03-03 12:27:00,
2013-03-03 07:32:00,29.4,19.1,29.78,NW,304,7.0,10.0,65,0.00,,OVC095,0.00,VWS V14.01,2013-03-03 12:32:00,
2013-03-03 07:37:00,29.7,19.4,29.78,NW,316,1.0,10.0,65,0.00,,OVC095,0.00,VWS V14.01,2013-03-03 12:37:00,
2013-03-03 07:42:00,30.2,19.5,29.78,North,360,9.0,10.0,64,0.00,,OVC095,0.00,VWS V14.01,2013-03-03 12:42:00,
2013-03-03 07:47:00,30.4,19.3,29.78,WNW,289,4.0,11.0,63,0.00,,OVC095,0.00,VWS V14.01,2013-03-03 12:47:00,
2013-03-03 07:52:00,30.5,19.8,29.78,NW,322,1.0,11.0,64,0.00,,OVC095,0.00,VWS V14.01,2013-03-03 12:52:00,
2013-03-03 07:57:00,30.7,20.0,29.78,SW,226,2.0,11.0,64,0.00,,OVC095,0.00,VWS V14.01,2013-03-03 12:57:00,
2013-03-03 08:02:00,30.7,20.0,29.78,West,267,4.0,8.0,64,0.00,,OVC034,0.00,VWS V14.01,2013-03-03 13:02:00,
2013-03-03 08:07:00,30.8,20.1,29.78,NW,304,3.0,8.0,64,0.00,,OVC034,0.00,VWS V14.01,2013-03-03 13:07:00,
2013-03-03 08:12:00,31.1,20.4,29.79,WNW,287,4.0,8.0,64,0.00,,OVC034,0.00,VWS V14.01,2013-03-03 13:12:00,
2013-03-03 08:17:00,31.3,20.2,29.79,West,273,3.0,9.0,63,0.00,,OVC034,0.00,VWS V14.01,2013-03-03 13:17:00,
2013-03-03 08:22:00,31.4,20.3,29.79,WNW,297,3.0,12.0,63,0.00,,OVC034,0.00,VWS V14.01,2013-03-03 13:22:00,
2013-03-03 08:27:00,31.5,20.4,29.79,West,280,4.0,12.0,63,0.00,,OVC034,0.00,VWS V14.01,2013-03-03 13:27:00,
2013-03-03 08:32:00,31.4,20.3,29.78,NW,310,10.0,12.0,63,0.00,,OVC034,0.00,VWS V14.01,2013-03-03 13:32:00,
2013-03-03 08:37:00,31.0,19.9,29.78,NW,321,5.0,12.0,63,0.00,,OVC034,0.00,VWS V14.01,2013-03-03 13:37:00,
2013-03-03 08:42:00,31.1,20.4,29.78,NW,311,3.0,12.0,64,0.00,,OVC034,0.00,VWS V14.01,2013-03-03 13:42:00,
2013-03-03 08:47:00,31.2,20.5,29.78,NE,34,1.0,12.0,64,0.00,,OVC034,0.00,VWS V14.01,2013-03-03 13:47:00,
2013-03-03 08:52:00,31.4,20.6,29.78,NW,325,8.0,12.0,64,0.00,,OVC034,0.00,VWS V14.01,2013-03-03 13:52:00,
2013-03-03 08:57:00,31.6,20.5,29.78,NNW,341,4.0,15.0,63,0.00,,OVC034,0.00,VWS V14.01,2013-03-03 13:57:00,
2013-03-03 09:02:00,31.5,20.0,29.78,WNW,301,3.0,11.0,62,0.00,,OVC032,0.00,VWS V14.01,2013-03-03 14:02:00,
2013-03-03 09:07:00,31.6,20.5,29.78,NNW,340,4.0,11.0,63,0.00,,OVC032,0.00,VWS V14.01,2013-03-03 14:07:00,
2013-03-03 09:12:00,31.7,20.6,29.78,WNW,303,5.0,11.0,63,0.00,,OVC032,0.00,VWS V14.01,2013-03-03 14:12:00,
2013-03-03 09:17:00,31.8,20.3,29.78,WNW,295,5.0,11.0,62,0.00,,OVC032,0.00,VWS V14.01,2013-03-03 14:17:00,
2013-03-03 09:22:00,31.7,20.2,29.78,NNW,347,4.0,11.0,62,0.00,,OVC032,0.00,VWS V14.01,2013-03-03 14:22:00,
2013-03-03 09:28:00,31.7,20.6,29.78,NW,311,3.0,11.0,63,0.00,,OVC032,0.00,VWS V14.01,2013-03-03 14:28:00,
2013-03-03 09:33:00,32.0,20.9,29.78,NW,320,2.0,8.0,63,0.00,,OVC032,0.00,VWS V14.01,2013-03-03 14:33:00,
2013-03-03 09:38:00,32.2,20.7,29.78,West,260,5.0,11.0,62,0.00,,OVC032,0.00,VWS V14.01,2013-03-03 14:38:00,
2013-03-03 09:43:00,32.3,20.8,29.78,NW,316,3.0,11.0,62,0.00,,OVC032,0.00,VWS V14.01,2013-03-03 14:43:00,
2013-03-03 09:48:00,32.2,20.7,29.78,WNW,297,6.0,12.0,62,0.00,,OVC032,0.00,VWS V14.01,2013-03-03 14:48:00,
2013-03-03 09:53:00,32.0,20.5,29.78,NW,317,4.0,12.0,62,0.00,,OVC032,0.00,VWS V14.01,2013-03-03 14:53:00,
2013-03-03 09:58:00,32.0,20.5,29.78,NNW,327,3.0,12.0,62,0.00,,OVC032,0.00,VWS V14.01,2013-03-03 14:58:00,
2013-03-03 10:03:00,32.0,20.9,29.77,NW,321,5.0,7.0,63,0.00,,OVC036,0.00,VWS V14.01,2013-03-03 15:03:00,
2013-03-03 10:08:00,32.0,20.9,29.77,NW,325,9.0,11.0,63,0.00,,OVC036,0.00,VWS V14.01,2013-03-03 15:08:00,
2013-03-03 10:13:00,32.1,20.6,29.77,North,5,2.0,11.0,62,0.00,,OVC036,0.00,VWS V14.01,2013-03-03 15:13:00,
2013-03-03 10:18:00,32.3,20.4,29.77,North,360,4.0,11.0,61,0.00,,OVC036,0.00,VWS V14.01,2013-03-03 15:18:00,
2013-03-03 10:23:00,32.6,20.3,29.78,West,267,4.0,11.0,60,0.00,,OVC036,0.00,VWS V14.01,2013-03-03 15:23:00,
2013-03-03 10:28:00,32.4,20.1,29.77,West,277,5.0,11.0,60,0.00,,OVC036,0.00,VWS V14.01,2013-03-03 15:28:00,
2013-03-03 10:33:00,32.6,20.7,29.77,WNW,297,6.0,9.0,61,0.00,,OVC036,0.00,VWS V14.01,2013-03-03 15:33:00,
2013-03-03 10:38:00,32.8,20.1,29.77,NW,304,12.0,15.0,59,0.00,,OVC036,0.00,VWS V14.01,2013-03-03 15:38:00,
2013-03-03 10:43:00,33.1,19.9,29.77,WNW,290,3.0,15.0,58,0.00,,OVC036,0.00,VWS V14.01,2013-03-03 15:43:00,
2013-03-03 10:48:00,33.6,20.8,29.77,WNW,287,4.0,15.0,59,0.00,,OVC036,0.00,VWS V14.01,2013-03-03 15:48:00,
2013-03-03 10:53:00,34.2,19.7,29.77,NW,308,5.0,15.0,55,0.00,,OVC036,0.00,VWS V14.01,2013-03-03 15:53:00,
2013-03-03 10:58:00,34.9,20.4,29.77,WNW,286,6.0,15.0,55,0.00,,OVC036,0.00,VWS V14.01,2013-03-03 15:58:00,
2013-03-03 11:03:00,35.2,20.2,29.76,NW,325,3.0,14.0,54,0.00,,BKN100,0.00,VWS V14.01,2013-03-03 16:03:00,
2013-03-03 11:08:00,35.4,19.5,29.76,NNW,328,8.0,14.0,52,0.00,,BKN100,0.00,VWS V14.01,2013-03-03 16:08:00,
2013-03-03 11:13:00,35.9,20.9,29.76,WNW,286,4.0,14.0,54,0.00,,BKN100,0.00,VWS V14.01,2013-03-03 16:13:00,
2013-03-03 11:18:00,36.0,20.1,29.76,WNW,282,6.0,14.0,52,0.00,,BKN100,0.00,VWS V14.01,2013-03-03 16:18:00,
2013-03-03 11:23:00,36.6,21.1,29.76,NNW,343,4.0,14.0,53,0.00,,BKN100,0.00,VWS V14.01,2013-03-03 16:23:00,
2013-03-03 11:28:00,36.7,20.3,29.76,NW,310,8.0,14.0,51,0.00,,BKN100,0.00,VWS V14.01,2013-03-03 16:28:00,
2013-03-03 11:33:00,36.6,20.2,29.76,West,273,7.0,9.0,51,0.00,,BKN100,0.00,VWS V14.01,2013-03-03 16:33:00,
2013-03-03 11:38:00,36.7,19.8,29.76,WNW,289,4.0,13.0,50,0.00,,BKN100,0.00,VWS V14.01,2013-03-03 16:38:00,
2013-03-03 11:43:00,36.8,20.4,29.76,NW,322,5.0,13.0,51,0.00,,BKN100,0.00,VWS V14.01,2013-03-03 16:43:00,
2013-03-03 11:48:00,36.9,20.0,29.76,NW,318,12.0,13.0,50,0.00,,BKN100,0.00,VWS V14.01,2013-03-03 16:48:00,
2013-03-03 11:53:00,36.9,20.5,29.75,NNW,327,11.0,13.0,51,0.00,,BKN100,0.00,VWS V14.01,2013-03-03 16:53:00,
2013-03-03 11:59:00,36.8,19.9,29.75,NW,323,7.0,14.0,50,0.00,,BKN100,0.00,VWS V14.01,2013-03-03 16:59:00,
2013-03-03 12:04:00,36.5,20.6,29.75,NW,311,3.0,12.0,52,0.00,,OVC100,0.00,VWS V14.01,2013-03-03 17:04:00,
2013-03-03 12:09:00,36.7,20.3,29.75,WNW,288,4.0,14.0,51,0.00,,OVC100,0.00,VWS V14.01,2013-03-03 17:09:00,
2013-03-03 12:14:00,36.9,20.0,29.75,NW,316,9.0,15.0,50,0.00,,OVC100,0.00,VWS V14.01,2013-03-03 17:14:00,
2013-03-03 12:19:00,36.8,20.4,29.75,West,277,4.0,15.0,51,0.00,,OVC100,0.00,VWS V14.01,2013-03-03 17:19:00,
2013-03-03 12:24:00,36.6,20.2,29.75,NW,311,4.0,15.0,51,0.00,,OVC100,0.00,VWS V14.01,2013-03-03 17:24:00,
2013-03-03 12:29:00,36.4,20.0,29.75,NW,319,7.0,15.0,51,0.00,,OVC100,0.00,VWS V14.01,2013-03-03 17:29:00,
2013-03-03 12:34:00,36.2,19.8,29.75,NW,306,8.0,12.0,51,0.00,,OVC100,0.00,VWS V14.01,2013-03-03 17:34:00,
2013-03-03 12:39:00,35.7,19.8,29.74,NNW,331,5.0,15.0,52,0.00,,OVC100,0.00,VWS V14.01,2013-03-03 17:39:00,
2013-03-03 12:44:00,36.0,20.5,29.74,NNW,336,6.0,15.0,53,0.00,,OVC100,0.00,VWS V14.01,2013-03-03 17:44:00,
2013-03-03 12:49:00,36.5,20.6,29.74,NW,318,4.0,15.0,52,0.00,,OVC100,0.00,VWS V14.01,2013-03-03 17:49:00,
2013-03-03 12:54:00,37.1,20.7,29.73,NNW,342,11.0,17.0,51,0.00,,OVC100,0.00,VWS V14.01,2013-03-03 17:54:00,
2013-03-03 12:59:00,37.7,20.8,29.73,NNW,329,3.0,18.0,50,0.00,,OVC100,0.00,VWS V14.01,2013-03-03 17:59:00,
2013-03-03 13:04:00,38.3,21.3,29.74,West,273,5.0,12.0,50,0.00,,OVC100,0.00,VWS V14.01,2013-03-03 18:04:00,
2013-03-03 13:09:00,38.1,20.6,29.73,WSW,257,4.0,14.0,49,0.00,,OVC100,0.00,VWS V14.01,2013-03-03 18:09:00,
2013-03-03 13:14:00,37.9,20.9,29.73,NW,313,5.0,14.0,50,0.00,,OVC100,0.00,VWS V14.01,2013-03-03 18:14:00,
2013-03-03 13:19:00,37.3,20.4,29.73,WSW,254,8.0,16.0,50,0.00,,OVC100,0.00,VWS V14.01,2013-03-03 18:19:00,
2013-03-03 13:24:00,37.1,20.7,29.73,NW,316,5.0,16.0,51,0.00,,OVC100,0.00,VWS V14.01,2013-03-03 18:24:00,
2013-03-03 13:29:00,37.1,20.7,29.73,North,355,8.0,17.0,51,0.00,,OVC100,0.00,VWS V14.01,2013-03-03 18:29:00,
2013-03-03 13:34:00,37.1,21.1,29.72,NNW,337,4.0,14.0,52,0.00,,OVC100,0.00,VWS V14.01,2013-03-03 18:34:00,
2013-03-03 13:39:00,37.4,20.9,29.72,NW,309,3.0,14.0,51,0.00,,OVC100,0.00,VWS V14.01,2013-03-03 18:39:00,
2013-03-03 13:44:00,37.3,20.9,29.73,NNW,332,6.0,16.0,51,0.00,,OVC100,0.00,VWS V14.01,2013-03-03 18:44:00,
2013-03-03 13:49:00,37.2,21.2,29.72,NW,312,6.0,16.0,52,0.00,,OVC100,0.00,VWS V14.01,2013-03-03 18:49:00,
2013-03-03 13:54:00,37.1,21.1,29.73,NW,319,3.0,16.0,52,0.00,,OVC100,0.00,VWS V14.01,2013-03-03 18:54:00,
2013-03-03 13:59:00,36.9,20.9,29.73,NW,313,6.0,17.0,52,0.00,,OVC100,0.00,VWS V14.01,2013-03-03 18:59:00,
2013-03-03 14:04:00,36.7,20.8,29.73,WNW,299,6.0,17.0,52,0.00,,BKN041,0.00,VWS V14.01,2013-03-03 19:04:00,
2013-03-03 14:09:00,36.7,21.2,29.73,NW,306,6.0,17.0,53,0.00,,BKN041,0.00,VWS V14.01,2013-03-03 19:09:00,
2013-03-03 14:14:00,36.9,20.9,29.73,NW,307,11.0,17.0,52,0.00,,BKN041,0.00,VWS V14.01,2013-03-03 19:14:00,
2013-03-03 14:19:00,37.6,20.7,29.73,NW,308,8.0,17.0,50,0.00,,BKN041,0.00,VWS V14.01,2013-03-03 19:19:00,
2013-03-03 14:24:00,37.7,20.8,29.73,NW,311,10.0,17.0,50,0.00,,BKN041,0.00,VWS V14.01,2013-03-03 19:24:00,
2013-03-03 14:29:00,38.3,21.3,29.73,NNW,342,5.0,17.0,50,0.00,,BKN041,0.00,VWS V14.01,2013-03-03 19:29:00,
2013-03-03 14:34:00,39.6,22.5,29.73,West,279,6.0,11.0,50,0.00,,BKN041,0.00,VWS V14.01,2013-03-03 19:34:00,
2013-03-03 14:39:00,40.2,21.6,29.73,West,262,7.0,15.0,47,0.00,,BKN041,0.00,VWS V14.01,2013-03-03 19:39:00,
2013-03-03 14:44:00,39.7,21.1,29.73,NNE,26,8.0,15.0,47,0.00,,BKN041,0.00,VWS V14.01,2013-03-03 19:44:00,
2013-03-03 14:49:00,39.1,21.1,29.73,NNW,337,4.0,16.0,48,0.00,,BKN041,0.00,VWS V14.01,2013-03-03 19:49:00,
2013-03-03 14:54:00,39.9,22.3,29.72,NNW,338,10.0,16.0,49,0.00,,BKN041,0.00,VWS V14.01,2013-03-03 19:54:00,
2013-03-03 14:59:00,39.5,21.0,29.72,SW,220,9.0,16.0,47,0.00,,BKN041,0.00,VWS V14.01,2013-03-03 19:59:00,
2013-03-03 15:04:00,38.9,21.4,29.72,WSW,252,8.0,11.0,49,0.00,,BKN100,0.00,VWS V14.01,2013-03-03 20:04:00,
2013-03-03 15:09:00,38.7,21.2,29.72,WSW,239,5.0,15.0,49,0.00,,BKN100,0.00,VWS V14.01,2013-03-03 20:09:00,
2013-03-03 15:14:00,39.1,21.6,29.72,West,276,6.0,15.0,49,0.00,,BKN100,0.00,VWS V14.01,2013-03-03 20:14:00,
2013-03-03 15:19:00,39.4,21.8,29.72,NNW,347,8.0,15.0,49,0.00,,BKN100,0.00,VWS V14.01,2013-03-03 20:19:00,
2013-03-03 15:24:00,39.9,21.8,29.72,NW,312,5.0,15.0,48,0.00,,BKN100,0.00,VWS V14.01,2013-03-03 20:24:00,
2013-03-03 15:29:00,40.5,22.4,29.72,NNW,345,5.0,6.0,48,0.00,,BKN100,0.00,VWS V14.01,2013-03-03 20:29:00,
2013-03-03 15:35:00,40.5,21.4,29.72,WNW,283,6.0,14.0,46,0.00,,BKN100,0.00,VWS V14.01,2013-03-03 20:35:00,
2013-03-03 15:40:00,40.2,21.6,29.72,WNW,301,5.0,14.0,47,0.00,,BKN100,0.00,VWS V14.01,2013-03-03 20:40:00,
2013-03-03 15:45:00,39.6,21.0,29.72,NNW,343,4.0,14.0,47,0.00,,BKN100,0.00,VWS V14.01,2013-03-03 20:45:00,
2013-03-03 15:50:00,39.2,21.2,29.72,NW,316,9.0,14.0,48,0.00,,BKN100,0.00,VWS V14.01,2013-03-03 20:50:00,
2013-03-03 15:55:00,39.2,21.2,29.73,WNW,302,5.0,14.0,48,0.00,,BKN100,0.00,VWS V14.01,2013-03-03 20:55:00,
2013-03-03 16:00:00,39.4,21.8,29.72,West,273,4.0,6.0,49,0.00,,BKN100,0.00,VWS V14.01,2013-03-03 21:00:00,
2013-03-03 16:05:00,38.9,20.9,29.73,NW,323,7.0,21.0,48,0.00,,FEW100,0.00,VWS V14.01,2013-03-03 21:05:00,
2013-03-03 16:10:00,38.5,21.0,29.73,West,267,4.0,21.0,49,0.00,,FEW100,0.00,VWS V14.01,2013-03-03 21:10:00,
2013-03-03 16:15:00,38.4,20.9,29.73,NW,325,5.0,21.0,49,0.00,,FEW100,0.00,VWS V14.01,2013-03-03 21:15:00,
2013-03-03 16:20:00,38.6,21.1,29.73,West,276,5.0,21.0,49,0.00,,FEW100,0.00,VWS V14.01,2013-03-03 21:20:00,
2013-03-03 16:25:00,38.4,20.9,29.73,WNW,292,7.0,21.0,49,0.00,,FEW100,0.00,VWS V14.01,2013-03-03 21:25:00,
2013-03-03 16:30:00,38.4,21.4,29.73,WSW,252,12.0,14.0,50,0.00,,FEW100,0.00,VWS V14.01,2013-03-03 21:30:00,
2013-03-03 16:35:00,38.3,21.3,29.73,NNW,347,2.0,14.0,50,0.00,,FEW100,0.00,VWS V14.01,2013-03-03 21:35:00,
2013-03-03 16:40:00,38.2,20.7,29.73,NNW,340,5.0,14.0,49,0.00,,FEW100,0.00,VWS V14.01,2013-03-03 21:40:00,
2013-03-03 16:45:00,38.1,21.6,29.73,West,266,8.0,15.0,51,0.00,,FEW100,0.00,VWS V14.01,2013-03-03 21:45:00,
2013-03-03 16:50:00,38.0,21.0,29.73,WNW,292,13.0,17.0,50,0.00,,FEW100,0.00,VWS V14.01,2013-03-03 21:50:00,
2013-03-03 16:55:00,37.3,20.9,29.73,NNW,327,5.0,17.0,51,0.00,,FEW100,0.00,VWS V14.01,2013-03-03 21:55:00,
2013-03-03 17:00:00,36.8,20.8,29.73,NW,315,8.0,8.0,52,0.00,,BKN049,0.00,VWS V14.01,2013-03-03 22:00:00,
2013-03-03 17:05:00,36.6,20.6,29.73,NW,323,6.0,10.0,52,0.00,,BKN049,0.00,VWS V14.01,2013-03-03 22:05:00,
2013-03-03 17:10:00,36.6,21.1,29.73,NNW,330,13.0,13.0,53,0.00,,BKN049,0.00,VWS V14.01,2013-03-03 22:10:00,
2013-03-03 17:15:00,36.4,20.5,29.74,NW,308,5.0,13.0,52,0.00,,BKN049,0.00,VWS V14.01,2013-03-03 22:15:00,
2013-03-03 17:20:00,36.3,20.8,29.74,NW,306,11.0,13.0,53,0.00,,BKN049,0.00,VWS V14.01,2013-03-03 22:20:00,
2013-03-03 17:25:00,36.1,20.2,29.74,WNW,284,5.0,13.0,52,0.00,,BKN049,0.00,VWS V14.01,2013-03-03 22:25:00,
2013-03-03 17:30:00,36.0,20.5,29.74,NW,317,10.0,12.0,53,0.00,,BKN049,0.00,VWS V14.01,2013-03-03 22:30:00,
2013-03-03 17:35:00,35.8,20.8,29.74,WNW,297,8.0,12.0,54,0.00,,BKN049,0.00,VWS V14.01,2013-03-03 22:35:00,
2013-03-03 17:40:00,35.6,20.6,29.74,NW,322,7.0,15.0,54,0.00,,BKN049,0.00,VWS V14.01,2013-03-03 22:40:00,
2013-03-03 17:45:00,35.4,20.9,29.74,NW,305,3.0,15.0,55,0.00,,BKN049,0.00,VWS V14.01,2013-03-03 22:45:00,
2013-03-03 17:50:00,35.2,20.7,29.74,NW,309,2.0,15.0,55,0.00,,BKN049,0.00,VWS V14.01,2013-03-03 22:50:00,
2013-03-03 17:55:00,35.0,20.5,29.75,NNW,335,7.0,16.0,55,0.00,,BKN049,0.00,VWS V14.01,2013-03-03 22:55:00,
2013-03-03 18:00:00,35.0,20.9,29.75,WNW,287,3.0,8.0,56,0.00,,BKN110,0.00,VWS V14.01,2013-03-03 23:00:00,
2013-03-03 18:05:00,34.8,20.7,29.75,WNW,299,4.0,14.0,56,0.00,,BKN110,0.00,VWS V14.01,2013-03-03 23:05:00,
2013-03-03 18:10:00,34.8,20.7,29.75,WNW,286,7.0,18.0,56,0.00,,BKN110,0.00,VWS V14.01,2013-03-03 23:10:00,
2013-03-03 18:15:00,34.6,20.5,29.76,WNW,301,5.0,18.0,56,0.00,,BKN110,0.00,VWS V14.01,2013-03-03 23:15:00,
2013-03-03 18:20:00,34.3,20.2,29.76,NW,313,7.0,18.0,56,0.00,,BKN110,0.00,VWS V14.01,2013-03-03 23:20:00,
2013-03-03 18:25:00,34.1,20.5,29.76,NW,315,5.0,18.0,57,0.00,,BKN110,0.00,VWS V14.01,2013-03-03 23:25:00,
2013-03-03 18:30:00,34.0,20.8,29.76,NW,323,4.0,4.0,58,0.00,,BKN110,0.00,VWS V14.01,2013-03-03 23:30:00,
2013-03-03 18:35:00,33.9,20.3,29.76,NW,314,2.0,10.0,57,0.00,,BKN110,0.00,VWS V14.01,2013-03-03 23:35:00,
2013-03-03 18:40:00,33.8,20.6,29.76,NW,311,9.0,12.0,58,0.00,,BKN110,0.00,VWS V14.01,2013-03-03 23:40:00,
2013-03-03 18:45:00,33.8,20.6,29.76,WNW,284,3.0,12.0,58,0.00,,BKN110,0.00,VWS V14.01,2013-03-03 23:45:00,
2013-03-03 18:50:00,33.7,20.5,29.76,NNW,338,7.0,12.0,58,0.00,,BKN110,0.00,VWS V14.01,2013-03-03 23:50:00,
2013-03-03 18:55:00,33.7,20.9,29.77,NNW,327,8.0,12.0,59,0.00,,BKN110,0.00,VWS V14.01,2013-03-03 23:55:00,
2013-03-03 19:00:00,33.7,21.3,29.77,WNW,297,5.0,10.0,60,0.00,,OVC110,0.00,VWS V14.01,2013-03-04 00:00:00,
2013-03-03 19:05:00,33.9,21.1,29.77,WNW,298,5.0,11.0,59,0.00,,OVC110,0.00,VWS V14.01,2013-03-04 00:05:00,
2013-03-03 19:10:00,33.8,21.0,29.77,NW,318,4.0,11.0,59,0.00,,OVC110,0.00,VWS V14.01,2013-03-04 00:10:00,
2013-03-03 19:15:00,33.7,20.9,29.77,North,350,5.0,14.0,59,0.00,,OVC110,0.00,VWS V14.01,2013-03-04 00:15:00,
2013-03-03 19:20:00,33.7,20.9,29.77,NW,317,7.0,14.0,59,0.00,,OVC110,0.00,VWS V14.01,2013-03-04 00:20:00,
2013-03-03 19:25:00,33.6,20.8,29.77,North,5,8.0,14.0,59,0.00,,OVC110,0.00,VWS V14.01,2013-03-04 00:25:00,
2013-03-03 19:30:00,33.6,21.2,29.77,NW,310,8.0,11.0,60,0.00,,OVC110,0.00,VWS V14.01,2013-03-04 00:30:00,
2013-03-03 19:35:00,33.5,20.7,29.78,WNW,300,4.0,11.0,59,0.00,,OVC110,0.00,VWS V14.01,2013-03-04 00:35:00,
2013-03-03 19:40:00,33.6,20.8,29.78,NW,306,7.0,11.0,59,0.00,,OVC110,0.00,VWS V14.01,2013-03-04 00:40:00,
2013-03-03 19:45:00,33.5,20.7,29.78,NNW,340,11.0,11.0,59,0.00,,OVC110,0.00,VWS V14.01,2013-03-04 00:45:00,
2013-03-03 19:50:00,33.5,20.7,29.78,WNW,298,3.0,15.0,59,0.00,,OVC110,0.00,VWS V14.01,2013-03-04 00:50:00,
2013-03-03 19:55:00,33.4,20.6,29.78,WNW,283,3.0,15.0,59,0.00,,OVC110,0.00,VWS V14.01,2013-03-04 00:55:00,
2013-03-03 20:00:00,33.4,20.6,29.78,WNW,294,10.0,10.0,59,0.00,,CLR,0.00,VWS V14.01,2013-03-04 01:00:00,
2013-03-03 20:05:00,33.2,20.4,29.78,NW,310,5.0,10.0,59,0.00,,CLR,0.00,VWS V14.01,2013-03-04 01:05:00,
2013-03-03 20:10:00,33.0,20.6,29.79,WNW,283,4.0,10.0,60,0.00,,CLR,0.00,VWS V14.01,2013-03-04 01:10:00,
2013-03-03 20:15:00,32.8,20.5,29.79,NNW,340,2.0,10.0,60,0.00,,CLR,0.00,VWS V14.01,2013-03-04 01:15:00,
2013-03-03 20:20:00,32.6,20.3,29.79,WNW,301,4.0,12.0,60,0.00,,CLR,0.00,VWS V14.01,2013-03-04 01:20:00,
2013-03-03 20:26:00,32.5,20.2,29.79,WNW,288,2.0,12.0,60,0.00,,CLR,0.00,VWS V14.01,2013-03-04 01:26:00,
2013-03-03 20:31:00,32.4,20.5,29.79,NW,307,5.0,9.0,61,0.00,,CLR,0.00,VWS V14.01,2013-03-04 01:31:00,
2013-03-03 20:36:00,32.3,20.4,29.79,NW,318,6.0,14.0,61,0.00,,CLR,0.00,VWS V14.01,2013-03-04 01:36:00,
2013-03-03 20:41:00,32.2,20.3,29.79,NW,317,5.0,14.0,61,0.00,,CLR,0.00,VWS V14.01,2013-03-04 01:41:00,
2013-03-03 20:46:00,32.1,20.6,29.79,NW,308,4.0,14.0,62,0.00,,CLR,0.00,VWS V14.01,2013-03-04 01:46:00,
2013-03-03 20:51:00,32.1,20.2,29.79,WNW,295,4.0,14.0,61,0.00,,CLR,0.00,VWS V14.01,2013-03-04 01:51:00,
2013-03-03 20:56:00,32.0,20.1,29.79,WNW,290,5.0,14.0,61,0.00,,CLR,0.00,VWS V14.01,2013-03-04 01:56:00,
2013-03-03 21:01:00,32.0,20.1,29.79,WNW,298,6.0,12.0,61,0.00,,FEW040,0.00,VWS V14.01,2013-03-04 02:01:00,
2013-03-03 21:06:00,31.9,20.4,29.79,NW,310,6.0,12.0,62,0.00,,FEW040,0.00,VWS V14.01,2013-03-04 02:06:00,
2013-03-03 21:11:00,31.8,20.3,29.79,North,351,9.0,15.0,62,0.00,,FEW040,0.00,VWS V14.01,2013-03-04 02:11:00,
2013-03-03 21:16:00,31.8,20.3,29.79,NNW,344,9.0,15.0,62,0.00,,FEW040,0.00,VWS V14.01,2013-03-04 02:16:00,
2013-03-03 21:21:00,31.7,19.8,29.80,NNW,346,7.0,19.0,61,0.00,,FEW040,0.00,VWS V14.01,2013-03-04 02:21:00,
2013-03-03 21:26:00,31.7,19.8,29.80,NNW,327,7.0,19.0,61,0.00,,FEW040,0.00,VWS V14.01,2013-03-04 02:26:00,
2013-03-03 21:31:00,31.6,19.7,29.79,West,274,7.0,16.0,61,0.00,,FEW040,0.00,VWS V14.01,2013-03-04 02:31:00,
2013-03-03 21:36:00,31.5,19.6,29.80,West,273,6.0,16.0,61,0.00,,FEW040,0.00,VWS V14.01,2013-03-04 02:36:00,
2013-03-03 21:41:00,31.4,19.5,29.80,WNW,301,6.0,16.0,61,0.00,,FEW040,0.00,VWS V14.01,2013-03-04 02:41:00,
2013-03-03 21:46:00,31.3,19.4,29.80,NNW,342,5.0,16.0,61,0.00,,FEW040,0.00,VWS V14.01,2013-03-04 02:46:00,
2013-03-03 21:51:00,31.2,19.3,29.80,NNW,334,5.0,16.0,61,0.00,,FEW040,0.00,VWS V14.01,2013-03-04 02:51:00,
2013-03-03 21:56:00,31.1,19.2,29.80,NW,305,4.0,16.0,61,0.00,,FEW040,0.00,VWS V14.01,2013-03-04 02:56:00,
2013-03-03 22:01:00,31.0,19.5,29.80,NNW,332,7.0,14.0,62,0.00,,BKN038,0.00,VWS V14.01,2013-03-04 03:01:00,
2013-03-03 22:06:00,30.9,19.4,29.80,SW,235,9.0,16.0,62,0.00,,BKN038,0.00,VWS V14.01,2013-03-04 03:06:00,
2013-03-03 22:11:00,30.8,19.3,29.80,WNW,293,4.0,16.0,62,0.00,,BKN038,0.00,VWS V14.01,2013-03-04 03:11:00,
2013-03-03 22:16:00,30.8,19.3,29.80,NNW,328,7.0,16.0,62,0.00,,BKN038,0.00,VWS V14.01,2013-03-04 03:16:00,
2013-03-03 22:21:00,30.8,19.0,29.80,NW,315,7.0,20.0,61,0.00,,BKN038,0.00,VWS V14.01,2013-03-04 03:21:00,
2013-03-03 22:26:00,30.7,18.9,29.81,NW,314,5.0,20.0,61,0.00,,BKN038,0.00,VWS V14.01,2013-03-04 03:26:00,
2013-03-03 22:31:00,30.7,18.9,29.81,West,281,5.0,17.0,61,0.00,,BKN038,0.00,VWS V14.01,2013-03-04 03:31:00,
2013-03-03 22:36:00,30.6,18.8,29.81,NNW,328,12.0,17.0,61,0.00,,BKN038,0.00,VWS V14.01,2013-03-04 03:36:00,
2013-03-03 22:41:00,30.5,18.7,29.81,NW,319,13.0,17.0,61,0.00,,BKN038,0.00,VWS V14.01,2013-03-04 03:41:00,
2013-03-03 22:46:00,30.5,18.7,29.81,North,350,4.0,17.0,61,0.00,,BKN038,0.00,VWS V14.01,2013-03-04 03:46:00,
2013-03-03 22:51:00,30.4,18.6,29.81,NW,321,10.0,17.0,61,0.00,,BKN038,0.00,VWS V14.01,2013-03-04 03:51:00,
2013-03-03 22:56:00,30.3,18.5,29.81,WNW,288,5.0,17.0,61,0.00,,BKN038,0.00,VWS V14.01,2013-03-04 03:56:00,
2013-03-03 23:02:00,30.2,18.4,29.81,NW,316,6.0,11.0,61,0.00,,CLR,0.00,VWS V14.01,2013-03-04 04:02:00,
2013-03-03 23:07:00,30.2,18.4,29.81,NNW,329,8.0,12.0,61,0.00,,CLR,0.00,VWS V14.01,2013-03-04 04:07:00,
2013-03-03 23:12:00,30.1,18.3,29.81,NW,321,2.0,12.0,61,0.00,,CLR,0.00,VWS V14.01,2013-03-04 04:12:00,
2013-03-03 23:17:00,30.0,18.6,29.81,WNW,288,4.0,12.0,62,0.00,,CLR,0.00,VWS V14.01,2013-03-04 04:17:00,
2013-03-03 23:22:00,29.9,18.5,29.81,NW,308,8.0,12.0,62,0.00,,CLR,0.00,VWS V14.01,2013-03-04 04:22:00,
2013-03-03 23:27:00,29.8,18.0,29.81,WNW,296,7.0,15.0,61,0.00,,CLR,0.00,VWS V14.01,2013-03-04 04:27:00,
2013-03-03 23:32:00,29.8,18.0,29.81,WNW,292,3.0,10.0,61,0.00,,CLR,0.00,VWS V14.01,2013-03-04 04:32:00,
2013-03-03 23:37:00,29.8,18.0,29.81,NW,313,11.0,11.0,61,0.00,,CLR,0.00,VWS V14.01,2013-03-04 04:37:00,
2013-03-03 23:42:00,29.7,17.9,29.81,NW,319,9.0,22.0,61,0.00,,CLR,0.00,VWS V14.01,2013-03-04 04:42:00,
2013-03-03 23:47:00,29.8,17.6,29.81,NW,311,12.0,22.0,60,0.00,,CLR,0.00,VWS V14.01,2013-03-04 04:47:00,
2013-03-03 23:52:00,29.8,17.6,29.81,NW,307,7.0,22.0,60,0.00,,CLR,0.00,VWS V14.01,2013-03-04 04:52:00,
2013-03-03 23:57:00,29.7,17.5,29.81,NW,305,4.0,22.0,60,0.00,,CLR,0.00,VWS V14.01,2013-03-04 04:57:00,